User: anonymous   Login
Location: Unspecified
(0.0000°N, 0.0000°E)
Time: 21:16:31
(UTC+02:00)
Language:

Vanguard 1 - Orbit

View from above orbital plane
View from above orbital plane
View from above satellite
View from above satellite

Ground track
Ground track

The orbit data is extracted from the following two-line orbital elements,

1     5U 58002B   18170.74036514 +.00000044 +00000-0 +46753-4 0  9994
2     5 034.2573 312.8934 1846107 313.4319 032.6423 10.84819028126114
Epoch (UTC): 19 June 2018 17:46:07
Eccentricity: 0.1846107
inclination: 34.2573°
perigee height: 650 km
apogee height: 3833 km
right ascension of ascending node: 312.8934°
argument of perigee: 313.4319°
revolutions per day: 10.84819028
mean anomaly at epoch: 32.6423°
orbit number at epoch: 12611

The dashed part of the orbit path shows where the satellite is in the earth's shadow,  

DLR